Weather History for Kars, Turkey

Change the Weather History Date:

Wednesday, February 19, 2014

  Actual Average Record
Temperature  
Mean Temperature 29 °F -  
Max Temperature 41 °F 32 °F - ()
Min Temperature 15 °F 14 °F - ()
Degree Days  
Heating Degree Days 36    
Moisture  
Dew Point 20 °F    
Average Humidity 68    
Maximum Humidity 86    
Minimum Humidity 28    
Precipitation  
Precipitation 0.00 in 0.03 in - ()
Sea Level Pressure  
Sea Level Pressure 30.20 in    
Wind  
Wind Speed 9 mph ()    
Max Wind Speed 21 mph    
Max Gust Speed -    
Visibility 6.1 miles    
Events      
T = Trace of Precipitation, MM = Missing Value Source: Averaged Metar Reports

Daily Weather History Graph

Daily Weather History Graph

Search for Another Location

Airport:

Trip Planner

Search our weather history database for the weather conditions in past years. The results will help you decide how hot, cold, wet, or windy it might be!

Date:

Astronomy

Feb. 19, 2014 Rise Set
Actual Time 5:56 AM EET 4:47 PM EET
Civil Twilight 5:28 AM EET 5:14 PM EET
Nautical Twilight 4:56 AM EET 5:46 PM EET
Astronomical Twilight 4:25 AM EET 6:18 PM EET
Moon 9:19 PM EET (2/19) 7:48 AM EET (2/19)
Length of Visible Light 11h 46m
Length of Day
10h 50m
Waning Gibbous, 82% of the Moon is Illuminated
Feb 19
Waning Gibbous
Feb 22
Last Quarter
Mar 1
New
Mar 8
First Quarter
Mar 16
Full

Hourly Weather History & Observations

Time (EET) Temp. Windchill Dew Point Humidity Pressure Visibility Wind Dir Wind Speed Gust Speed Precip Events Conditions
12:50 AM 30.2 °F 17.4 °F 26.6 °F 86% 30.09 in 6.2 mi SW 20.7 mph - N/A   Partly Cloudy
1:50 AM 30.2 °F 19.3 °F 24.8 °F 80% 30.09 in 6.2 mi SSW 15.0 mph - N/A   Scattered Clouds
2:00 AM 30 °F - 25 °F 73%  in 6 mi SSW 15.0 mph - -   Partly Cloudy
2:50 AM 28.4 °F 18.5 °F 23.0 °F 80% 30.06 in 6.2 mi SW 11.5 mph - N/A   Scattered Clouds
3:50 AM 28.4 °F 20.4 °F 24.8 °F 86% 30.09 in 6.2 mi WSW 8.1 mph - N/A   Partly Cloudy
4:50 AM 30.2 °F 19.3 °F 24.8 °F 80% 30.12 in 6.2 mi WSW 15.0 mph - N/A   Scattered Clouds
5:00 AM 30 °F - 25 °F 73%  in 6 mi WSW 15.0 mph - -   Partly Cloudy
5:50 AM 32.0 °F 24.2 °F 24.8 °F 75% 30.12 in 6.2 mi WSW 9.2 mph - N/A   Partly Cloudy
6:50 AM 28.4 °F 21.2 °F 21.2 °F 74% 30.18 in 6.2 mi SSW 6.9 mph - N/A   Scattered Clouds
7:50 AM 32.0 °F 25.6 °F 23.0 °F 69% 30.21 in 6.2 mi SSW 6.9 mph - N/A   Scattered Clouds
8:00 AM 32 °F - 23 °F 60%  in 6 mi SSW 6.9 mph - -   Partly Cloudy
8:50 AM 35.6 °F 29.9 °F 23.0 °F 60% 30.24 in 6.2 mi South 6.9 mph - N/A   Scattered Clouds
9:50 AM 35.6 °F 26.6 °F 23.0 °F 60% 30.24 in 6.2 mi NNW 13.8 mph - N/A   Scattered Clouds
10:50 AM 39.2 °F - 21.2 °F 49% 30.24 in 6.2 mi Calm Calm - N/A   Scattered Clouds
11:00 AM 40 °F - 18 °F 28%  in 6 mi Calm Calm - -   Partly Cloudy
11:50 AM 37.4 °F 31.4 °F 15.8 °F 41% 30.21 in 6.2 mi WNW 8.1 mph - N/A   Scattered Clouds
12:50 PM 39.2 °F 37.0 °F 17.6 °F 42% 30.21 in 6.2 mi Variable 3.5 mph - N/A   Partly Cloudy
1:50 PM 37.4 °F 30.3 °F 23.0 °F 56% 30.21 in 6.2 mi West 10.4 mph - N/A   Mostly Cloudy
2:00 PM 37 °F - 21 °F 40%  in 6 mi West 10.4 mph - -   Mostly Cloudy
2:50 PM 33.8 °F 25.8 °F 23.0 °F 65% 30.24 in 6.2 mi ESE 10.4 mph - N/A   Scattered Clouds
3:50 PM 33.8 °F 28.6 °F 21.2 °F 60% 30.24 in 6.2 mi NE 5.8 mph - N/A   Partly Cloudy
4:50 PM 26.6 °F 15.2 °F 19.4 °F 74% 30.24 in - ESE 13.8 mph - N/A   Clear
5:00 PM 26 °F - 20 °F 68%  in 6 mi ESE 13.8 mph - -  
5:50 PM 24.8 °F 15.3 °F 17.6 °F 74% 30.24 in - ESE 9.2 mph - N/A   Clear
6:50 PM 24.8 °F - 17.6 °F 74% 30.24 in - Variable 1.2 mph - N/A   Clear
7:50 PM 23.0 °F - 15.8 °F 74% 30.24 in - Calm Calm - N/A   Clear
8:00 PM 22 °F - 17 °F 73%  in 6 mi Calm Calm - -  
8:50 PM 21.2 °F 13.6 °F 15.8 °F 80% 30.24 in - West 5.8 mph - N/A   Clear
9:50 PM 21.2 °F - 15.8 °F 80% 30.24 in - Calm Calm - N/A   Clear
10:50 PM 17.6 °F - 14.0 °F 86% 30.24 in - Variable 1.2 mph - N/A   Clear
11:00 PM 18 °F - 15 °F 84%  in 6 mi NW 1.2 mph - -  
11:50 PM 15.8 °F - 10.4 °F 79% 30.24 in - Calm Calm - N/A   Clear